Probability
0 0 0 0 0 0 0 0 0 0 0 0 0 0 0 0 0 0 0 0 0 0 0 0 0 0 0 0 0 0 0 0 0 0 0 0 0 0 0 0 0 0 0 0
0 0 0 0 0 0 0 0 0 0 0 0 0 0 0 0 0 0 0 0 0 0 0 0 0 0 0 0 0 0 0 0 0 0 0 0 0 0 0 0 0 0 0 0
0 0 0 0 0 0 0 0 0 0 0 0 0 0 0 0 0 0 0 0 0 0 0 0 0 0 0 0 0 0 0 0 0 0 0 0 0 0 0 0 0 0 0 0
0 0 0 0 0 0 0 0 0 0 0 0 0 0 0 0 0 0 0 0 0 0 0 0 0 0 0 0 0 0 0 0 0 0 0 0 0 0 0 0 0 0 0 0
0 0 0 0 0 0 0 0 0 0 0 0 0 0 0 0 0 0 0 0 0 0 0 0 0 0 0 0 0 0 0 0 0 0 0 0 0 0 0 0 0 0 0 0
0 0 0 0 0 0 0 0 0 0 0 0 0 0 0 0 0 0 0 0 0 0 0 0 0 0 0 0 0 0 0 0 0 0 0 0 0 0 0 0 0 0 0 0
0 0 0 0 0 0 0 0 0 0 0 0 0 0 0 0 0 0 0 0 0 0 0 0 0 0 0 0 0 0 0 0 0 0 0 0 0 0 0 0 0 0 0 0
0 0 0 0 0 0 0 0 0 0 0 0 0 0 0 0 0 0 0 0 0 0 0 0 0 0 0 0 0 0 0 0 0 0 0 0 0 0 0 0 0 0 0 0
0 0 0 0 0 0 0 0 0 0 0 0 0 0 0 0 0 0 0 0 0 0 0 0 0 0 0 0 0 0 0 0 0 0 0 0 0 0 0 0 0 0 0 0
0 0 0 0 0 0 0 0 0 0 0 0 0 0 0 0 0 0 0 0 0 0 0 0 0 0 0 0 0 0 0 0 0 0 0 0 0 0 0 0 0 0 0 0
0 0 0 0 0 0 0 0 0 0 0 0 0 0 0 0 0 0 0 0 0 0 0 0 0 0 0 0 0 0 0 0 0 0 0 0 0 0 0 0 0 0 0 0
0 0 0 0 0 0 0 0 0 0 0 0 0 0 0 0 0 0 0 0 0 0 0 0 0 0 0 0 0 0 0 0 0 0 0 0 0 0 0 0 0 0 0 0
0 0 0 0 0 0 0 0 0 0 0 0 0 0 0 0 0 0 0 0 0 0 0 0 0 0 0 0 0 0 0 0 0 0 0 0 0 0 0 0 0 0 0 0
0 0 0 0 0 0 0 0 0 0 0 0 0 0 0 0 0 0 0 0 0 0 0 0 0 0 0 0 0 0 0 0 0 0 0 0 0 0 0 0 0 0 0 0
0 0 0 0 0 0 0 0 0 0 0 0 0 0 0 0 0 0 0 0 0 0 0 0 0 0 0 0 0 0 0 0 0 0 0 0 0 0 0 0 0 0 0 0
0 0 0 0 0 0 0 0 0 0 0 0 0 0 0 0 0 0 0 0 0 0 0 0 0 0 0 0 0 0 0 0 0 0 0 0 0 0 0 0 0 0 0 0
0 0 0 0 0 0 0 0 0 0 0 0 0 0 0 0 0 0 0 0 0 0 0 0 0 0 0 0 0 0 0 0 0 0 0 0 0 0 0 0 0 0 0 0
0 0 0 0 0 0 0 0 0 0 0 0 0 0 0 0 0 0 0 0 0 0 0 0 0 0 0 0 0 0 0 0 0 0 0 0 0 0 0 0 0 0 0 0
0 0 0 0 0 0 0 0 0 0 0 0 0 0 0 0 0 0 0 0 0 0 0 0 0 0 0 0 0 0 0 0 0 0 0 0 0 0 0 0 0 0 0 0
0 0 0 0 0 0 0 0 0 0 0 0 0 0 0 0 0 0 0 0 0 0 0 0 0 0 0 0 0 0 0 0 0 0 0 0 0 0 0 0 0 0 0 0
0 0 0 0 0 0 0 0 0 0 0 0 0 0 0 0 0 0 0 0 0 0 0 0 0 0 0 0 0 0 0 0 0 0 0 0 0 0 0 0 0 0 0 0
0 0 0 0 0 0 0 0 0 0 0 0 0 0 0 0 0 0 0 0 0 0 0 0 0 0 0 0 0 0 0 0 0 0 0 0 0 0 0 0 0 0 0 0
0 0 0 0 0 0 0 0 0 0 0 0 0 0 0 0 0 0 0 0 0 0 0 0 0 0 0 0 0 0 0 0 0 0 0 0 0 0 0 0 0 0 0 0
0 0 0 0 0 0 0 0 0 0 0 0 0 0 0 0 0 0 0 0 0 0 0 0 0 0 0 0 0 0 0 0 0 0 0 0 0 0 0 0 0 0 0 0
0 0 0 0 0 0 0 0 0 0 0 0 0 0 0 0 0 0 0 0 0 0 0 0 0 0 0 0 0 0 0 0 0 0 0 0 0 0 0 0 0 0 0 0
0 0 0 0 0 0 0 0 0 0 0 0 0 0 0 0 0 0 0 0 0 0 0 0 0 0 0 0 0 0 0 0 0 0 0 0 0 0 0 0 0 0 0 0
0 0 0 0 0 0 0 0 0 0 0 0 0 0 0 0 0 0 0 0 0 0 0 0 0 0 0 0 0 0 0 0 0 0 0 0 0 0 0 0 0 0 0 0
Wind_Speed
27 30 20 17 18 23 28 30 32 37 36 41 37 23 23 23 19 18 16 16 19 18 17 16 17 18 18 18 17 16 14 12 10 8 7 6 5 6 6 7 8 10 11 12
25 30 24 19 28 34 32 33 36 34 40 44 36 29 32 31 24 20 20 19 19 19 17 18 19 19 19 19 17 15 14 12 10 8 7 6 5 5 6 8 9 9 10 11
22 25 17 24 36 38 36 37 34 35 42 39 34 30 32 30 21 21 23 19 16 18 19 18 19 20 21 19 17 15 13 11 10 8 7 5 4 5 7 7 8 10 10 11
13 15 27 23 22 30 37 40 36 33 38 38 35 34 30 24 19 25 22 18 15 14 15 15 17 19 18 17 16 15 13 12 10 8 6 5 4 5 6 6 7 8 10 11
12 20 21 19 23 22 24 31 32 34 36 37 34 20 27 24 19 23 23 17 10 9 12 15 19 20 19 17 16 14 13 12 10 8 6 5 5 5 5 6 7 8 9 11
19 20 20 22 24 16 12 22 35 34 33 34 25 18 25 20 10 13 10 4 6 10 14 17 19 20 20 18 17 15 13 12 10 8 6 5 5 4 5 5 7 8 9 11
29 28 20 18 12 12 16 24 24 22 25 25 23 22 20 10 3 3 3 6 11 14 15 17 19 20 19 18 16 14 13 11 9 7 6 5 4 4 4 5 6 7 9 11
23 28 25 19 16 22 29 25 17 15 12 12 14 15 13 9 7 7 8 10 14 14 14 16 19 20 19 17 15 14 12 11 9 7 5 4 4 4 3 4 5 6 8 11
20 18 10 16 27 27 26 26 23 19 15 11 12 14 12 9 9 11 12 13 14 15 16 16 17 17 18 16 15 14 12 10 8 7 5 4 4 3 1 2 3 5 7 9
12 12 12 13 13 14 16 19 20 16 12 8 12 13 12 10 10 12 14 16 15 17 18 17 16 14 15 17 15 14 12 10 8 7 6 5 3 2 0 1 3 5 8 9
25 23 23 21 18 14 12 12 13 14 12 12 14 14 14 13 14 15 16 17 17 18 19 20 18 15 16 16 16 15 12 10 8 6 5 4 3 1 0 1 4 7 7 8
30 25 23 20 12 12 15 18 18 18 19 17 16 18 16 15 15 16 18 19 19 19 20 20 19 17 16 15 15 15 13 10 7 6 4 3 2 2 1 3 7 9 10 11
33 27 26 24 21 20 23 23 20 19 22 23 18 17 18 17 15 17 19 22 23 23 22 21 20 18 16 15 14 14 13 11 8 6 5 4 3 3 3 4 6 7 10 14
28 25 30 29 28 24 23 24 22 22 22 21 19 16 16 16 14 19 23 24 22 22 22 22 21 18 16 15 14 13 12 11 9 7 6 5 4 4 3 3 5 5 8 13
26 25 28 29 27 25 23 23 25 25 22 20 17 17 16 17 19 22 20 20 21 22 22 22 21 19 17 16 15 14 12 9 8 7 6 5 5 4 3 0 2 4 6 8
23 22 21 21 23 24 23 23 24 25 22 21 19 19 19 20 19 17 20 24 27 28 25 24 22 20 18 17 16 12 10 13 10 8 7 6 5 4 3 1 2 3 5 5
17 18 18 21 24 25 25 25 25 25 24 23 22 19 18 17 17 20 22 23 22 22 23 23 23 20 18 17 16 12 11 11 12 8 6 6 5 5 3 1 1 3 4 6
15 19 21 24 25 27 29 28 27 26 24 22 20 17 17 21 24 24 24 22 20 19 18 19 22 21 19 17 13 11 11 10 9 8 7 6 6 4 3 2 1 3 4 5
19 21 23 25 24 25 27 29 29 27 26 22 19 17 18 22 22 24 25 26 26 24 20 20 26 22 19 17 15 11 11 11 9 7 7 8 6 4 3 2 1 2 3 5
22 22 24 26 25 24 26 27 27 27 25 21 17 13 14 17 21 24 24 21 17 16 22 23 22 18 17 17 15 11 12 11 10 8 7 6 6 5 3 2 1 2 3 4
24 24 25 26 27 26 24 25 24 24 21 15 10 10 14 18 21 21 21 17 16 21 23 25 17 16 15 14 14 11 11 10 9 8 8 7 6 5 4 3 1 2 3 4
23 23 24 25 25 24 19 16 14 11 5 4 12 17 20 21 20 17 14 13 19 24 19 15 14 16 18 16 11 11 10 10 8 7 7 6 5 5 4 2 1 1 2 4
20 21 22 21 21 18 15 14 12 9 11 13 15 17 18 17 14 15 14 13 17 21 16 14 19 23 21 13 10 10 10 9 8 7 7 6 5 4 3 2 1 1 3 4
19 18 18 17 14 12 13 14 14 13 15 15 14 13 14 13 11 9 13 20 21 20 15 20 26 23 17 10 10 9 9 8 7 7 6 5 4 4 3 2 1 2 3 4
16 15 14 14 12 10 10 11 12 14 14 13 15 14 11 9 11 14 15 18 22 20 17 20 23 18 11 10 9 9 7 7 7 6 6 5 4 3 3 2 2 2 3 4
13 11 9 10 9 8 8 8 8 9 9 11 12 12 12 12 15 15 14 18 20 19 16 13 13 12 9 9 9 8 7 7 7 5 5 4 4 3 2 2 3 3 3 4
11 9 8 8 9 9 8 8 9 10 9 10 12 12 12 12 13 14 16 15 14 14 12 10 9 8 8 8 8 7 6 5 5 4 4 3 3 3 2 3 2 3 3 4
Wind_Direction
252 260 253 245 243 234 230 239 249 258 262 266 271 274 276 274 266 258 249 238 235 231 222 212 204 198 191 184 176 168 161 166 175 177 190 211 236 258 275 281 282 283 284 284
246 251 254 256 258 256 252 252 254 259 263 265 273 278 278 274 271 265 261 249 239 231 222 211 200 191 184 179 174 165 161 164 164 172 187 209 235 260 273 276 279 281 281 286
243 247 250 244 245 251 254 253 253 256 259 267 269 266 265 271 273 268 268 263 245 230 219 207 195 184 180 174 165 160 156 158 164 173 187 205 231 257 266 273 279 282 285 291
244 238 237 240 246 244 251 256 255 254 260 264 266 269 274 275 269 271 270 264 253 232 215 195 180 173 167 163 162 156 155 159 165 172 184 200 230 252 265 273 281 287 293 295
229 237 249 253 247 234 239 253 256 256 259 263 266 276 277 270 256 259 265 265 253 206 182 169 166 161 157 161 158 154 158 163 166 169 178 197 227 250 269 282 286 290 291 296
234 238 234 235 243 233 222 254 255 253 255 260 266 266 269 274 251 248 253 227 158 149 151 156 157 156 159 161 159 161 162 159 158 162 174 195 221 253 272 280 283 293 298 298
234 242 242 238 237 140 207 243 250 245 243 247 248 246 258 272 239 210 179 153 146 148 155 158 157 159 162 160 163 156 148 146 151 159 174 194 219 250 268 278 292 297 297 296
228 238 241 217 195 208 235 247 254 254 247 238 243 251 254 242 215 180 166 159 156 155 157 158 163 163 160 161 149 142 142 144 149 158 173 181 210 240 255 286 299 303 304 303
229 238 241 217 218 226 239 251 256 259 258 240 241 249 247 232 208 186 174 169 166 161 156 162 169 165 157 149 143 141 141 144 150 157 170 180 202 222 253 314 313 314 310 309
272 267 277 279 273 262 258 260 266 271 271 251 242 246 240 223 203 189 179 175 170 165 165 167 168 162 150 144 143 142 144 147 152 158 163 168 195 189 138 332 321 311 312 317
276 276 279 271 268 270 274 275 276 276 267 254 251 245 235 223 208 196 185 179 176 176 172 166 160 149 145 145 145 145 145 147 150 153 149 150 147 146 218 318 300 307 316 320
269 273 274 278 279 276 273 271 270 270 269 259 245 249 242 230 213 196 187 180 179 179 170 162 157 150 149 150 152 148 147 151 152 151 145 137 124 114 58 359 332 327 328 330
275 278 277 279 275 272 272 273 268 263 264 266 257 244 242 235 213 194 186 182 182 178 167 161 156 152 152 155 155 154 149 149 147 145 142 135 111 73 34 355 342 346 347 342
277 278 277 276 275 274 270 270 269 265 262 260 257 247 238 231 207 192 191 186 178 168 162 160 155 154 154 154 153 148 144 143 142 140 138 134 121 99 68 1 331 325 336 341
283 284 281 282 279 274 271 270 268 266 263 257 250 244 231 217 206 199 187 171 164 163 163 160 155 154 153 153 150 147 143 141 137 134 135 132 124 115 109 89 302 307 316 332
318 308 304 300 296 293 288 280 274 271 268 262 253 241 228 216 205 185 170 167 167 170 168 162 157 154 153 152 148 144 141 140 139 138 139 134 126 118 110 77 340 326 329 326
327 319 321 313 306 299 294 289 284 279 275 269 259 245 224 202 180 171 172 172 171 166 162 157 150 149 151 152 149 144 140 141 141 137 136 132 125 118 114 94 1 329 323 307
301 294 292 291 291 292 290 287 284 281 276 273 265 243 210 187 179 173 165 159 153 152 156 149 145 146 148 151 146 141 140 142 143 140 137 130 124 123 125 117 14 333 323 321
308 301 298 293 289 285 283 281 280 278 276 274 266 240 207 188 174 160 156 156 155 155 151 147 148 144 146 149 143 139 138 136 135 135 132 129 127 126 128 118 55 346 328 324
311 307 302 297 291 283 279 277 277 277 275 272 260 229 190 167 153 151 153 155 157 147 145 146 141 142 143 148 140 138 138 138 138 139 136 134 133 133 132 117 68 354 336 325
314 312 308 304 299 292 281 276 273 271 273 266 230 171 145 137 139 142 144 141 134 137 141 138 139 141 142 140 138 136 137 139 141 142 140 138 137 136 131 115 79 5 339 324
314 312 310 308 306 304 303 296 286 279 284 98 107 117 123 129 134 132 123 126 135 138 135 135 137 138 139 138 135 134 136 138 137 137 137 140 142 139 132 119 82 2 331 319
313 312 312 312 314 322 338 351 3 33 67 86 102 116 122 126 128 126 119 127 134 133 130 131 135 137 135 130 130 133 137 138 139 139 139 141 140 137 135 130 108 323 313 313
315 317 318 320 329 351 8 17 33 51 65 74 82 95 106 107 94 90 114 130 130 125 123 132 135 134 130 127 130 132 135 137 137 136 136 136 137 140 146 156 222 285 293 300
321 323 331 341 352 3 12 25 42 51 58 61 60 60 65 78 102 112 117 122 123 120 121 129 129 128 125 125 128 130 133 136 137 138 141 143 147 153 166 187 226 264 279 287
333 336 344 357 4 8 16 29 44 50 59 67 66 68 77 86 99 106 110 116 117 115 115 118 123 124 118 120 122 125 128 133 137 140 145 148 157 169 186 211 242 258 273 281
346 354 358 9 17 23 32 42 51 55 59 74 82 81 85 92 99 106 109 109 106 104 105 110 115 112 113 115 118 122 126 132 137 141 148 158 171 190 208 226 248 263 272 277